When you browse on this site, cookies collect data to enhance your experience and personalize the content and advertising you see.
Visit our Privacy Policy to learn more. By continuing to use the site, you agree to this use of cookies and data.
  • In Switzerland
  • List of Countries
  • For 7 days
  • Water Temperature
  • Satellite Maps
  • Weather Map
  • Weather Widgets
  • user-avatar
    Login

    Hourly Weather Krasnodvorsk

    Today, 20 February, Wednesday

    Time Temperature Precipitation Wind Pressure Humidity
    00:00 0°C° 0 mm 1 mps 769 mmHg 64%
    01:00 0°C° 0 mm 1 mps 769 mmHg 62%
    02:00 0°C° 0 mm 1 mps 769 mmHg 61%
    03:00 0°C° 0 mm 1 mps 768 mmHg 59%
    04:00 -2°C° 0 mm 2 mps 768 mmHg 59%
    05:00 -2°C° 0 mm 2 mps 768 mmHg 58%
    06:00 -2°C° 0 mm 2 mps 767 mmHg 57%
    07:00 -2°C° 0 mm 2 mps 767 mmHg 55%
    08:00 -1°C° 0 mm 2 mps 767 mmHg 52%
    09:00 0°C° 0 mm 3 mps 766 mmHg 50%
    10:00 +1°C° 0 mm 3 mps 766 mmHg 47%
    11:00 +2°C° 0 mm 3 mps 766 mmHg 45%
    12:00 +4°C° 0 mm 4 mps 765 mmHg 42%
    13:00 +4°C° 0 mm 4 mps 765 mmHg 45%
    14:00 +5°C° 0 mm 4 mps 764 mmHg 49%
    15:00 +5°C° 0 mm 4 mps 764 mmHg 52%
    16:00 +4°C° 0 mm 4 mps 763 mmHg 58%
    17:00 +3°C° 0 mm 3 mps 763 mmHg 63%
    18:00 +2°C° 0 mm 3 mps 763 mmHg 68%
    19:00 +2°C° 0 mm 3 mps 763 mmHg 71%
    20:00 +1°C° 0 mm 3 mps 763 mmHg 73%
    21:00 +1°C° 0 mm 3 mps 763 mmHg 75%
    22:00 +1°C° 0 mm 3 mps 762 mmHg 78%
    23:00 +1°C° 0 mm 3 mps 762 mmHg 80%

    Tomorrow, 21 February, Thursday

    Time Temperature Precipitation Wind Pressure Humidity
    00:00 +1°C° 0 mm 3 mps 762 mmHg 82%
    01:00 0°C° 0 mm 4 mps 762 mmHg 85%
    02:00 0°C° 0 mm 4 mps 761 mmHg 89%
    03:00 0°C° 0 mm 4 mps 761 mmHg 92%
    04:00 0°C° 0 mm 4 mps 761 mmHg 92%
    05:00 +1°C° 0 mm 5 mps 760 mmHg 93%
    06:00 +1°C° 0 mm 5 mps 760 mmHg 93%
    07:00 +1°C° 0.1 mm 5 mps 760 mmHg 92%
    08:00 +2°C° 0.1 mm 6 mps 760 mmHg 92%
    09:00 +2°C° 0.1 mm 6 mps 760 mmHg 91%
    10:00 +2°C° 0.2 mm 6 mps 759 mmHg 90%
    11:00 +3°C° 0.2 mm 6 mps 759 mmHg 89%
    12:00 +3°C° 0.2 mm 6 mps 759 mmHg 88%
    13:00 +4°C° 0.1 mm 6 mps 758 mmHg 76%
    14:00 +4°C° 0.1 mm 7 mps 758 mmHg 64%
    15:00 +5°C° 0.1 mm 8 mps 758 mmHg 52%
    16:00 +4°C° 0.1 mm 8 mps 758 mmHg 56%
    17:00 +4°C° 0.1 mm 8 mps 758 mmHg 60%
    18:00 +3°C° 0.1 mm 7 mps 758 mmHg 64%
    19:00 +2°C° 0.2 mm 7 mps 758 mmHg 64%
    20:00 0°C° 0.2 mm 7 mps 759 mmHg 63%
    21:00 -2°C° 0.2 mm 7 mps 759 mmHg 62%
    22:00 -2°C° 0 mm 7 mps 760 mmHg 61%
    23:00 -3°C° 0 mm 6 mps 760 mmHg 60%

    Day after tomorrow, 22 February, Friday

    Time Temperature Precipitation Wind Pressure Humidity
    00:00 -2°C° 0 mm 5 mps 761 mmHg 59%
    01:00 -4°C° 0 mm 5 mps 761 mmHg 59%
    02:00 -4°C° 0 mm 5 mps 761 mmHg 58%
    03:00 -4°C° 0 mm 5 mps 761 mmHg 58%
    04:00 -4°C° 0 mm 5 mps 761 mmHg 57%
    05:00 -4°C° 0 mm 5 mps 761 mmHg 56%
    06:00 -4°C° 0 mm 5 mps 761 mmHg 56%
    07:00 -4°C° 0 mm 5 mps 761 mmHg 54%
    08:00 -4°C° 0 mm 5 mps 761 mmHg 53%
    09:00 -2°C° 0 mm 5 mps 761 mmHg 52%
    10:00 -2°C° 0 mm 5 mps 761 mmHg 50%
    11:00 -1°C° 0 mm 5 mps 761 mmHg 48%
    12:00 -1°C° 0 mm 5 mps 761 mmHg 46%
    13:00 -1°C° 0.1 mm 5 mps 760 mmHg 53%
    14:00 -1°C° 0.1 mm 4 mps 760 mmHg 59%
    15:00 -1°C° 0.1 mm 3 mps 759 mmHg 66%
    16:00 -2°C° 0.6 mm 3 mps 759 mmHg 74%
    17:00 -2°C° 0.6 mm 3 mps 759 mmHg 82%
    18:00 -4°C° 0.6 mm 3 mps 759 mmHg 90%
    19:00 -4°C° 0.8 mm 4 mps 760 mmHg 91%
    20:00 -6°C° 0.8 mm 5 mps 760 mmHg 91%
    21:00 -6°C° 0.8 mm 5 mps 760 mmHg 91%
    22:00 -8°C° 0.7 mm 6 mps 760 mmHg 91%
    23:00 -9°C° 0.7 mm 6 mps 761 mmHg 90%

    23 February, Saturday

    Time Temperature Precipitation Wind Pressure Humidity
    00:00 -11°C° 0.7 mm 7 mps 761 mmHg 90%
    01:00 -11°C° 0.5 mm 7 mps 761 mmHg 90%
    02:00 -11°C° 0.5 mm 6 mps 762 mmHg 90%
    03:00 -11°C° 0.5 mm 6 mps 762 mmHg 90%
    04:00 -11°C° 0.3 mm 6 mps 762 mmHg 89%
    05:00 -12°C° 0.3 mm 6 mps 763 mmHg 89%
    06:00 -12°C° 0.3 mm 6 mps 763 mmHg 88%
    07:00 -12°C° 0.2 mm 6 mps 763 mmHg 88%
    08:00 -12°C° 0.2 mm 6 mps 764 mmHg 88%
    09:00 -12°C° 0.2 mm 6 mps 764 mmHg 87%
    10:00 -11°C° 0.3 mm 6 mps 765 mmHg 87%
    11:00 -11°C° 0.3 mm 6 mps 765 mmHg 87%
    12:00 -10°C° 0.3 mm 6 mps 765 mmHg 86%
    13:00 -10°C° 0.1 mm 6 mps 765 mmHg 86%
    14:00 -10°C° 0.1 mm 5 mps 766 mmHg 85%
    15:00 -8°C° 0.1 mm 5 mps 766 mmHg 84%
    16:00 -10°C° 0.1 mm 5 mps 766 mmHg 85%
    17:00 -10°C° 0.1 mm 5 mps 766 mmHg 86%
    18:00 -10°C° 0.1 mm 5 mps 767 mmHg 87%
    19:00 -11°C° 0.1 mm 5 mps 767 mmHg 88%
    20:00 -10°C° 0.1 mm 4 mps 767 mmHg 88%
    21:00 -10°C° 0.1 mm 4 mps 767 mmHg 89%
    22:00 -10°C° 0.1 mm 4 mps 767 mmHg 89%
    23:00 -9°C° 0.1 mm 3 mps 767 mmHg 89%

    24 February, Sunday

    Time Temperature Precipitation Wind Pressure Humidity
    00:00 -10°C° 0.1 mm 3 mps 767 mmHg 90%
    01:00 -10°C° 0.1 mm 3 mps 767 mmHg 90%
    02:00 -10°C° 0.1 mm 3 mps 767 mmHg 91%
    03:00 -10°C° 0.1 mm 3 mps 767 mmHg 91%
    04:00 -10°C° 0.1 mm 3 mps 767 mmHg 91%
    05:00 -10°C° 0.1 mm 3 mps 767 mmHg 92%
    06:00 -10°C° 0.1 mm 3 mps 767 mmHg 92%
    07:00 -10°C° 0.1 mm 3 mps 768 mmHg 92%
    08:00 -9°C° 0.1 mm 2 mps 768 mmHg 91%
    09:00 -9°C° 0.1 mm 2 mps 768 mmHg 91%
    10:00 -8°C° 0 mm 2 mps 768 mmHg 89%
    11:00 -7°C° 0 mm 2 mps 768 mmHg 87%
    12:00 -6°C° 0 mm 2 mps 768 mmHg 85%
    13:00 -6°C° 0 mm 2 mps 768 mmHg 85%
    14:00 -5°C° 0 mm 2 mps 768 mmHg 84%
    15:00 -5°C° 0 mm 2 mps 768 mmHg 84%
    16:00 -5°C° 0 mm 2 mps 768 mmHg 86%
    17:00 -6°C° 0 mm 2 mps 768 mmHg 88%
    18:00 -6°C° 0 mm 2 mps 768 mmHg 90%
    19:00 -6°C° 0.1 mm 2 mps 768 mmHg 91%
    20:00 -6°C° 0.1 mm 2 mps 768 mmHg 91%
    21:00 -6°C° 0.1 mm 2 mps 769 mmHg 92%
    22:00 -7°C° 0.2 mm 2 mps 768 mmHg 93%
    23:00 -7°C° 0.2 mm 2 mps 768 mmHg 93%

    25 February, Monday

    Time Temperature Precipitation Wind Pressure Humidity
    00:00 -8°C° 0.2 mm 3 mps 768 mmHg 93%
    01:00 -8°C° 0.1 mm 3 mps 768 mmHg 93%
    02:00 -8°C° 0.1 mm 3 mps 768 mmHg 94%
    03:00 -8°C° 0.1 mm 3 mps 767 mmHg 94%
    04:00 -8°C° 0.1 mm 3 mps 767 mmHg 94%
    05:00 -8°C° 0.1 mm 3 mps 767 mmHg 94%
    06:00 -8°C° 0.1 mm 3 mps 767 mmHg 94%
    07:00 -8°C° 0.1 mm 4 mps 767 mmHg 94%
    08:00 -8°C° 0.1 mm 4 mps 766 mmHg 94%
    09:00 -7°C° 0.1 mm 4 mps 766 mmHg 94%
    10:00 -5°C° 0.1 mm 4 mps 765 mmHg 95%
    11:00 -4°C° 0.1 mm 4 mps 765 mmHg 96%
    12:00 -2°C° 0.1 mm 4 mps 764 mmHg 97%
    13:00 -2°C° 0 mm 4 mps 764 mmHg 98%
    14:00 -1°C° 0 mm 4 mps 763 mmHg 98%
    15:00 -1°C° 0 mm 4 mps 763 mmHg 99%
    16:00 -1°C° 0 mm 4 mps 762 mmHg 98%
    17:00 -1°C° 0 mm 5 mps 762 mmHg 96%
    18:00 -1°C° 0 mm 5 mps 762 mmHg 95%
    19:00 -1°C° 0 mm 4 mps 761 mmHg 95%
    20:00 -1°C° 0 mm 4 mps 761 mmHg 96%
    21:00 -1°C° 0 mm 4 mps 761 mmHg 96%
    22:00 -1°C° 0 mm 4 mps 761 mmHg 96%
    23:00 -1°C° 0 mm 5 mps 760 mmHg 97%
    Show more